TimeEET,TemperatureF,Dew PointF,Humidity,Sea Level PressureIn,VisibilityMPH,Wind Direction,Wind SpeedMPH,Gust SpeedMPH,PrecipitationIn,Events,Conditions,WindDirDegrees,DateUTC
12:50 AM,35.6,28.4,75,29.98,6.2,Variable,2.3,-,N/A,,Partly Cloudy,0,2013-03-11 22:50:00
1:50 AM,33.8,26.6,75,29.95,6.2,NE,3.5,-,N/A,,Partly Cloudy,50,2013-03-11 23:50:00
2:00 AM,34,26,64,,6,NE,3.5,,,,Scattered Clouds,50,2013-03-12 00:00:00
2:50 AM,33.8,26.6,75,29.98,6.2,NNW,4.6,-,N/A,,Partly Cloudy,340,2013-03-12 00:50:00
3:50 AM,32.0,26.6,80,29.95,6.2,Variable,2.3,-,N/A,,Scattered Clouds,0,2013-03-12 01:50:00
4:50 AM,33.8,26.6,75,29.98,6.2,NNE,4.6,-,N/A,,Scattered Clouds,30,2013-03-12 02:50:00
5:50 AM,37.4,30.2,75,29.98,6.2,East,4.6,-,N/A,,Mostly Cloudy,100,2013-03-12 03:50:00
6:50 AM,41.0,32.0,70,29.98,6.2,SSW,4.6,-,N/A,,Mostly Cloudy,200,2013-03-12 04:50:00
6:58 AM,41.0,33.8,76,29.98,6.2,Variable,2.3,-,N/A,Rain,Light Rain,0,2013-03-12 04:58:00
7:21 AM,41.0,32.0,70,30.01,6.2,ESE,2.3,-,N/A,,Scattered Clouds,110,2013-03-12 05:21:00
7:50 AM,42.8,33.8,70,30.01,6.2,NE,3.5,-,N/A,,Mostly Cloudy,40,2013-03-12 05:50:00
8:00 AM,42,33,62,,6,NE,3.5,,,,Partly Cloudy,40,2013-03-12 06:00:00
8:50 AM,42.8,30.2,61,30.01,5.0,ENE,5.8,-,N/A,,Mostly Cloudy,70,2013-03-12 06:50:00
9:50 AM,46.4,32.0,57,30.01,5.0,NNE,9.2,-,N/A,,Mostly Cloudy,30,2013-03-12 07:50:00
10:50 AM,44.6,37.4,76,30.04,5.0,NNW,8.1,-,N/A,,Mostly Cloudy,340,2013-03-12 08:50:00
11:50 AM,44.6,37.4,76,30.04,5.6,NNW,9.2,-,N/A,,Mostly Cloudy,330,2013-03-12 09:50:00
12:50 PM,46.4,39.2,76,30.04,6.2,WNW,6.9,-,N/A,,Mostly Cloudy,290,2013-03-12 10:50:00
1:50 PM,48.2,35.6,62,30.01,6.2,NW,5.8,-,N/A,,Mostly Cloudy,320,2013-03-12 11:50:00
2:50 PM,48.2,39.2,71,30.01,6.2,NNW,9.2,-,N/A,,Mostly Cloudy,330,2013-03-12 12:50:00
3:50 PM,44.6,39.2,81,30.01,6.2,NW,10.4,-,N/A,,Mostly Cloudy,320,2013-03-12 13:50:00
4:50 PM,44.6,37.4,76,30.04,6.2,WNW,8.1,-,N/A,,Mostly Cloudy,290,2013-03-12 14:50:00
5:50 PM,42.8,35.6,76,30.04,6.2,ENE,4.6,-,N/A,,Mostly Cloudy,70,2013-03-12 15:50:00
6:50 PM,41.0,35.6,81,30.06,3.7,Variable,2.3,-,N/A,,Mostly Cloudy,0,2013-03-12 16:50:00
7:50 PM,42.8,37.4,81,30.06,3.7,SW,4.6,-,N/A,,Mostly Cloudy,230,2013-03-12 17:50:00
8:00 PM,43,36,69,,4,SW,4.6,,,,Mist,230,2013-03-12 18:00:00
8:50 PM,46.4,33.8,62,30.04,4.3,SSE,5.8,-,N/A,,Mostly Cloudy,160,2013-03-12 18:50:00
9:50 PM,46.4,35.6,66,30.06,4.3,WSW,10.4,-,N/A,,Mostly Cloudy,240,2013-03-12 19:50:00
10:05 PM,42.8,39.2,87,30.06,4.3,West,6.9,-,N/A,Rain,Light Rain,260,2013-03-12 20:05:00
10:50 PM,42.8,39.2,87,30.06,4.3,ESE,3.5,-,N/A,Rain,Light Rain,120,2013-03-12 20:50:00
11:50 PM,44.6,35.6,71,30.04,4.3,South,9.2,-,N/A,,Mostly Cloudy,170,2013-03-12 21:50:00